Weather History for Cambridge, MD

Change the Weather History Date:

Friday, June 14, 2013

  Actual Average (KESN) Record (KESN)
Temperature  
Mean Temperature 66 °F -  
Max Temperature 73 °F 82 °F 94 °F (1956)
Min Temperature 59 °F 61 °F 50 °F (1950)
Cooling Degree Days 1    
Growing Degree Days 16 (Base 50)    
Moisture  
Dew Point 54 °F    
Average Humidity 68    
Maximum Humidity 94    
Minimum Humidity 49    
Precipitation  
Precipitation 0.00 in - - ()
Sea Level Pressure  
Sea Level Pressure 29.85 in    
Wind  
Wind Speed 10 mph (NW)    
Max Wind Speed 18 mph    
Max Gust Speed 25 mph    
Visibility 10 miles    
Events      
Averages and records for this station are not official NWS values.
T = Trace of Precipitation, MM = Missing Value Source: NWS Daily Summary

Daily Weather History Graph

Daily Weather History Graph

Search for Another Location

Airport:

Trip Planner

Search our weather history database for the weather conditions in past years. The results will help you decide how hot, cold, wet, or windy it might be!

Date:

Astronomy

Jun. 14, 2013 Rise Set
Actual Time 5:39 AM EDT 8:29 PM EDT
Civil Twilight 5:07 AM EDT 9:01 PM EDT
Nautical Twilight 4:27 AM EDT 9:41 PM EDT
Astronomical Twilight 3:42 AM EDT 10:27 PM EDT
Moon 11:08 AM EDT (6/14) No Moon Set
Length of Visible Light 15h 54m
Length of Day
14h 50m
Waxing Crescent, 30% of the Moon is Illuminated
Jun 14
Waxing Crescent
Jun 16
First Quarter
Jun 23
Full
Jun 30
Last Quarter
Jul 8
New

Hourly Weather History & Observations

Time (EDT) Temp. Dew Point Humidity Pressure Visibility Wind Dir Wind Speed Gust Speed Precip Events Conditions
3:53 AM 62.6 °F 55.4 °F 77% 29.62 in 10.0 mi North 18.4 mph 25.3 mph N/A   Overcast
4:13 AM 62.6 °F 53.6 °F 72% 29.63 in 10.0 mi North 16.1 mph 21.9 mph N/A   Mostly Cloudy
4:33 AM 62.6 °F 53.6 °F 72% 29.64 in 10.0 mi North 15.0 mph 20.7 mph N/A   Overcast
4:53 AM 60.8 °F 53.6 °F 77% 29.66 in 10.0 mi NNW 11.5 mph 17.3 mph N/A   Overcast
5:13 AM 60.8 °F 53.6 °F 77% 29.68 in 10.0 mi North 11.5 mph 18.4 mph N/A   Overcast
8:33 AM 59.0 °F 53.6 °F 82% 29.76 in 10.0 mi North 8.1 mph - N/A   Scattered Clouds
8:53 AM 59.0 °F 53.6 °F 82% 29.78 in 10.0 mi NNW 11.5 mph 17.3 mph N/A   Scattered Clouds
9:13 AM 60.8 °F 53.6 °F 77% 29.78 in 10.0 mi North 12.7 mph 16.1 mph N/A   Scattered Clouds
9:33 AM 59.0 °F 53.6 °F 82% 29.79 in 7.0 mi North 8.1 mph - N/A   Mostly Cloudy
9:53 AM 59.0 °F 55.4 °F 88% 29.80 in 5.0 mi North 9.2 mph 19.6 mph N/A   Overcast
10:13 AM 59.0 °F 55.4 °F 88% 29.81 in 10.0 mi NNE 11.5 mph 18.4 mph N/A   Overcast
10:33 AM 59.0 °F 55.4 °F 88% 29.81 in 10.0 mi North 13.8 mph 19.6 mph N/A   Mostly Cloudy
10:53 AM 59.0 °F 53.6 °F 82% 29.82 in 10.0 mi North 11.5 mph 19.6 mph N/A   Overcast
11:13 AM 60.8 °F 53.6 °F 77% 29.82 in 10.0 mi North 10.4 mph 18.4 mph N/A   Overcast
11:33 AM 60.8 °F 55.4 °F 82% 29.84 in 4.0 mi North 10.4 mph - N/A   Overcast
11:53 AM 62.6 °F 55.4 °F 77% 29.84 in 10.0 mi North 12.7 mph 20.7 mph N/A   Mostly Cloudy
12:13 PM 62.6 °F 51.8 °F 68% 29.86 in 10.0 mi NNW 15.0 mph 23.0 mph N/A   Mostly Cloudy
12:34 PM 64.4 °F 51.8 °F 64% 29.86 in 10.0 mi North 11.5 mph 20.7 mph N/A   Scattered Clouds
12:54 PM 68.0 °F 53.6 °F 60% 29.87 in 10.0 mi North 12.7 mph 17.3 mph N/A   Scattered Clouds
1:14 PM 68.0 °F 51.8 °F 56% 29.87 in 10.0 mi North 13.8 mph - N/A   Scattered Clouds
1:34 PM 69.8 °F 53.6 °F 56% 29.87 in 10.0 mi North 10.4 mph 16.1 mph N/A   Scattered Clouds
1:54 PM 69.8 °F 51.8 °F 53% 29.87 in 10.0 mi North 11.5 mph 19.6 mph N/A   Scattered Clouds
2:14 PM 69.8 °F 50.0 °F 49% 29.88 in 10.0 mi North 10.4 mph - N/A   Clear
2:34 PM 69.8 °F 51.8 °F 53% 29.88 in 10.0 mi NW 8.1 mph - N/A   Scattered Clouds
2:54 PM 69.8 °F 51.8 °F 53% 29.88 in 10.0 mi NNW 8.1 mph - N/A   Scattered Clouds
3:14 PM 69.8 °F 51.8 °F 53% 29.88 in 10.0 mi NW 10.4 mph - N/A   Scattered Clouds
3:34 PM 71.6 °F 51.8 °F 50% 29.89 in 10.0 mi NNW 11.5 mph 16.1 mph N/A   Clear
3:54 PM 69.8 °F 51.8 °F 53% 29.89 in 10.0 mi NW 9.2 mph - N/A   Scattered Clouds
4:14 PM 71.6 °F 51.8 °F 50% 29.88 in 10.0 mi NW 8.1 mph - N/A   Clear
4:34 PM 71.6 °F 51.8 °F 50% 29.88 in 10.0 mi NW 5.8 mph - N/A   Clear
4:54 PM 73.4 °F 53.6 °F 50% 29.88 in 10.0 mi West 5.8 mph - N/A   Clear
5:14 PM 71.6 °F 51.8 °F 50% 29.88 in 10.0 mi WNW 6.9 mph - N/A   Clear
5:34 PM 73.4 °F 53.6 °F 50% 29.87 in 10.0 mi WNW 5.8 mph - N/A   Clear
5:54 PM 73.4 °F 53.6 °F 50% 29.87 in 10.0 mi West 4.6 mph - N/A   Clear
6:14 PM 73.4 °F 53.6 °F 50% 29.87 in 10.0 mi West 3.5 mph - N/A   Clear
6:34 PM 73.4 °F 55.4 °F 53% 29.87 in 10.0 mi WSW 3.5 mph - N/A   Clear
6:54 PM 71.6 °F 53.6 °F 53% 29.88 in 10.0 mi West 4.6 mph - N/A   Clear
7:14 PM 71.6 °F 53.6 °F 53% 29.88 in 10.0 mi WSW 4.6 mph - N/A   Clear
7:34 PM 69.8 °F 55.4 °F 60% 29.88 in 10.0 mi West 3.5 mph - N/A   Clear
7:54 PM 69.8 °F 55.4 °F 60% 29.88 in 10.0 mi WSW 3.5 mph - N/A   Clear
8:14 PM 69.8 °F 55.4 °F 60% 29.89 in 10.0 mi WSW 3.5 mph - N/A   Clear
8:34 PM 68.0 °F 59.0 °F 73% 29.89 in 10.0 mi Calm Calm - N/A   Clear
8:54 PM 68.0 °F 59.0 °F 73% 29.90 in 10.0 mi SW 4.6 mph - N/A   Scattered Clouds
9:14 PM 66.2 °F 59.0 °F 78% 29.90 in 10.0 mi SW 4.6 mph - N/A   Clear
9:35 PM 64.4 °F 57.2 °F 77% 29.91 in 10.0 mi WSW 3.5 mph - N/A   Clear
9:55 PM 64.4 °F 59.0 °F 83% 29.92 in 10.0 mi Calm Calm - N/A   Clear
10:15 PM 62.6 °F 59.0 °F 88% 29.92 in 10.0 mi Calm Calm - N/A   Clear
10:35 PM 62.6 °F 57.2 °F 82% 29.93 in 10.0 mi Calm Calm - N/A   Clear
10:55 PM 60.8 °F 59.0 °F 94% 29.93 in 10.0 mi Calm Calm - N/A   Clear
11:15 PM 60.8 °F 57.2 °F 88% 29.94 in 10.0 mi Calm Calm - N/A   Clear
11:35 PM 60.8 °F 57.2 °F 88% 29.94 in 10.0 mi Calm Calm - N/A   Clear
11:55 PM 60.8 °F 59.0 °F 94% 29.95 in 10.0 mi Calm Calm - N/A   Clear